SCP
2 2 3 3 3 3 2 2 2 2 2 2 2 2 2 2 2 2 2 2 2 2 1 1 1 1 1 1 1 1 1 1 1 1 1 1 1 1 1 1 1 1 1
2 2 3 3 3 3 2 2 2 2 2 2 2 2 2 2 2 2 2 2 2 2 1 1 1 1 1 1 1 1 1 1 1 1 1 1 1 1 1 1 1 1 1
2 2 2 3 3 3 3 2 2 2 2 2 2 2 2 2 2 2 2 2 2 2 1 1 1 1 1 1 1 1 1 1 1 1 1 1 1 1 1 1 1 1 1
2 2 2 3 2 2 3 3 3 3 2 2 2 2 2 3 3 3 3 3 2 2 1 1 1 1 1 1 1 1 1 1 1 1 1 1 1 1 2 2 1 1 1
2 2 2 3 2 2 2 3 3 3 3 3 3 3 3 3 4 4 3 3 2 2 2 1 1 1 1 1 1 1 1 1 1 1 1 1 1 2 2 2 1 1 1
3 2 2 3 3 2 2 2 3 3 3 3 3 3 3 4 4 4 4 3 3 2 2 1 1 1 1 1 1 1 1 1 1 1 1 1 1 2 2 2 1 1 1
3 3 3 3 3 3 2 2 2 3 3 3 3 4 4 4 4 4 4 3 3 3 2 2 2 2 2 2 2 2 2 2 2 2 1 1 2 2 2 2 1 1 1
4 4 3 3 3 3 3 3 3 3 3 3 3 4 4 4 4 3 3 3 3 3 3 3 2 2 2 2 2 2 3 2 2 2 2 2 2 3 3 2 2 2 2
5 5 4 4 3 3 3 3 3 3 3 3 3 4 4 4 3 3 3 4 4 4 4 3 3 3 3 2 2 3 3 3 2 2 2 2 2 3 3 2 2 2 2
5 5 5 5 4 4 3 3 3 4 3 3 3 4 4 4 4 4 4 4 5 5 5 5 4 4 3 3 3 3 3 3 2 2 2 2 3 3 3 3 2 2 2
5 5 6 6 5 4 4 4 4 4 4 4 4 4 4 4 4 4 4 4 5 5 6 5 5 4 4 3 3 3 3 2 3 2 2 3 3 4 4 4 3 3 2
4 5 5 5 5 5 5 4 4 4 4 4 4 4 5 5 4 4 4 4 4 5 5 5 4 4 3 3 2 2 2 2 3 3 3 3 4 4 4 4 4 3 3
4 4 4 4 5 5 5 5 4 4 5 5 5 5 5 5 4 3 3 3 4 4 4 4 4 3 3 2 2 2 2 2 2 2 2 3 3 4 5 5 4 3 3
7 6 6 6 7 7 6 6 5 4 5 5 6 6 5 5 4 3 3 3 3 4 4 4 4 3 3 2 2 2 2 2 2 2 2 2 3 4 5 5 4 3 3
8 8 7 8 8 7 7 6 5 4 4 4 5 6 6 5 5 4 4 4 4 4 5 4 4 4 3 3 3 2 2 2 1 2 2 2 3 4 5 5 4 3 2
9 8 8 8 7 7 6 6 5 4 4 4 5 6 6 6 5 5 5 4 4 4 5 5 4 4 3 3 3 2 2 1 1 2 2 2 2 3 4 4 3 2 2
8 8 9 8 7 6 6 6 5 5 4 5 5 6 6 6 6 6 6 5 4 4 5 5 5 4 3 3 3 2 2 2 2 2 2 2 2 2 3 3 3 2 2
8 8 9 9 9 7 6 5 5 4 5 5 6 7 7 7 6 6 5 5 5 5 5 5 4 3 2 2 2 2 2 2 2 2 2 2 2 2 2 3 3 3 2
8 8 9 11 10 8 6 5 4 4 4 5 6 7 7 7 7 6 5 5 6 6 6 4 3 2 2 2 2 2 2 2 3 3 2 2 2 2 2 3 3 3 3
10 9 10 12 11 9 6 5 5 5 5 5 6 6 7 8 7 6 6 5 5 6 5 4 3 2 2 2 2 2 2 2 3 3 2 2 3 3 2 3 3 3 3
11 10 10 10 9 8 7 6 5 5 5 6 6 6 7 8 8 7 6 5 5 5 4 4 3 2 2 2 2 2 2 2 2 2 2 2 3 3 2 2 3 3 3
11 10 8 8 7 7 6 6 5 5 5 6 6 6 6 7 7 7 7 5 4 3 3 3 3 2 2 2 2 2 2 2 2 2 2 2 3 3 2 2 3 3 3
10 9 8 7 7 6 6 6 5 5 5 5 5 5 5 5 5 5 6 5 3 3 3 3 3 2 2 2 2 1 1 2 2 2 2 3 3 3 3 3 3 4 4
8 8 8 9 8 7 6 5 4 4 4 4 4 4 4 4 3 4 4 4 3 3 2 3 3 3 2 2 2 2 2 2 2 2 2 3 3 3 3 3 4 5 5
7 8 9 10 10 8 7 5 4 4 3 3 3 3 3 3 3 3 3 3 3 3 3 3 3 3 3 2 2 2 2 2 2 2 2 3 3 3 3 4 5 5 5
9 8 9 11 11 9 7 6 4 3 3 3 3 3 3 3 4 4 3 4 4 4 4 4 4 4 3 3 2 2 2 3 3 2 3 3 3 3 4 5 5 5 5
Wind_Speed
13 15 15 14 12 12 12 12 12 12 11 11 10 10 10 10 10 10 10 9 9 9 8 7 7 6 6 6 6 6 6 5 5 5 5 5 5 6 6 5 4 5 9
15 15 15 14 13 12 12 12 11 11 11 10 9 9 9 9 9 8 8 8 7 7 7 6 6 5 5 4 4 4 3 2 2 1 1 2 3 4 4 5 5 5 8
14 14 15 14 13 12 12 11 11 11 11 11 10 9 9 8 8 7 7 6 6 6 6 5 5 4 4 3 3 2 1 1 2 2 3 3 4 6 6 5 5 5 6
14 13 13 14 13 12 12 12 11 11 11 10 10 9 9 8 7 7 6 6 5 5 5 4 4 3 3 2 1 1 1 3 4 5 4 4 3 8 8 6 6 5 5
13 13 13 15 13 13 12 12 11 11 10 10 9 9 8 8 7 6 6 5 5 5 4 4 3 3 2 1 1 1 3 5 7 7 5 2 2 8 10 8 6 5 5
13 14 14 14 13 12 12 12 12 11 10 10 9 9 8 7 7 6 5 5 4 3 3 2 2 2 1 0 1 3 4 5 7 6 4 4 4 9 10 8 7 6 5
13 14 15 14 13 12 12 11 11 11 10 10 9 8 8 7 6 5 4 4 3 2 2 2 1 1 1 1 3 4 5 7 6 6 2 3 6 10 9 8 6 5 4
12 14 14 14 14 13 12 11 11 11 10 10 9 8 8 7 6 5 4 4 3 2 2 1 1 1 2 3 4 5 7 8 6 5 1 4 8 10 9 7 6 4 4
11 13 12 12 12 12 12 12 11 11 10 10 9 8 7 7 6 6 5 4 3 2 2 2 2 3 3 4 5 7 8 9 7 4 2 3 9 10 9 7 6 4 3
10 11 11 10 10 10 11 12 12 11 11 10 9 9 8 7 6 6 6 5 4 4 4 4 4 5 6 6 7 8 9 8 6 5 1 4 9 10 8 7 5 4 3
8 9 9 9 8 7 9 11 11 11 10 10 8 9 8 6 6 6 6 7 7 6 6 6 7 7 7 9 10 10 9 5 5 2 2 6 8 9 8 6 4 4 3
7 7 7 8 7 6 6 8 6 7 8 7 5 6 5 4 3 5 7 9 9 8 8 9 9 9 8 5 7 9 5 6 3 2 3 8 8 8 7 5 4 4 3
7 5 5 6 6 5 4 5 3 3 4 5 5 5 3 3 2 3 3 4 6 7 6 6 8 6 5 3 3 4 4 3 1 2 4 8 8 7 7 5 5 4 4
6 6 6 6 6 4 4 3 3 3 3 3 3 4 2 1 1 1 2 2 3 3 3 3 3 4 4 4 4 4 4 2 1 2 4 8 8 8 8 7 6 5 5
5 5 5 5 5 4 3 2 2 2 2 3 3 3 2 1 1 1 1 1 2 2 3 2 3 3 3 4 4 4 3 2 3 2 3 8 9 9 9 8 7 5 5
5 5 3 5 5 4 3 2 2 2 2 2 2 3 2 1 1 1 1 1 2 2 1 2 3 2 2 2 3 3 3 3 2 2 3 5 8 9 9 8 7 6 6
5 4 3 4 5 4 3 2 1 1 1 2 2 2 2 1 1 1 1 1 2 2 2 2 2 2 2 2 2 3 3 3 2 1 2 3 4 7 8 8 7 6 7
5 4 3 3 4 4 3 2 1 1 1 1 1 2 2 1 1 1 1 1 2 2 2 2 1 2 2 2 2 3 3 2 3 3 2 2 2 3 5 7 6 6 7
5 4 4 4 4 3 3 2 1 1 1 1 1 1 1 0 1 0 1 1 1 1 1 3 1 2 2 2 3 3 3 2 2 3 2 2 2 2 3 6 7 7 7
5 4 3 4 3 3 2 2 1 2 1 1 1 1 1 1 1 0 0 1 2 1 1 2 2 2 2 2 4 3 2 2 2 2 2 2 2 3 2 3 4 6 8
5 4 4 4 4 3 2 2 2 1 1 1 1 2 0 0 0 0 1 1 1 1 1 2 2 3 2 1 3 3 3 3 2 2 2 1 2 3 3 3 3 3 3
5 5 4 4 4 3 2 2 2 2 1 1 1 1 1 1 1 1 1 0 1 1 1 2 2 2 3 1 1 2 2 2 2 4 3 3 4 3 3 4 3 3 4
4 4 5 4 4 3 3 2 1 1 0 1 1 1 1 1 1 1 1 1 1 1 1 2 1 2 3 2 1 1 2 1 2 2 3 3 3 2 3 3 3 3 4
5 5 5 5 4 3 3 2 2 2 1 1 1 1 2 2 1 1 1 2 1 1 1 2 1 2 3 3 2 2 2 2 2 2 2 2 2 3 3 3 2 3 3
4 5 5 5 5 4 3 3 2 1 1 1 1 2 2 1 1 1 1 1 1 1 1 1 1 2 2 2 2 2 3 2 2 2 3 2 2 3 3 3 3 2 2
4 4 5 5 4 4 3 3 2 2 1 1 2 1 1 1 1 1 1 1 1 1 1 1 1 2 2 3 3 2 2 2 2 2 3 3 3 3 2 2 3 3 2
Wind_Direction
112 122 125 122 121 121 122 124 126 126 123 119 118 113 108 103 100 99 100 100 102 103 105 105 105 99 90 82 73 66 62 63 62 63 69 78 86 88 88 84 86 100 111
117 124 126 126 125 125 126 126 128 129 127 124 121 119 115 111 109 107 107 107 108 109 109 109 108 103 98 93 85 75 64 56 52 58 99 131 140 129 115 101 88 90 106
115 126 128 127 128 128 129 129 129 130 130 128 126 124 121 118 117 115 114 113 112 113 114 114 111 108 105 101 100 99 84 298 280 266 248 228 173 154 140 127 118 111 108
119 129 129 130 129 130 131 131 133 133 134 133 132 130 128 126 125 122 120 118 114 112 113 115 115 112 113 117 124 171 249 263 270 270 249 227 182 145 143 137 131 127 121
119 121 127 132 132 132 133 136 138 138 137 135 135 134 133 131 129 127 124 123 117 111 110 111 117 112 117 135 184 257 267 268 272 267 253 209 132 141 144 144 139 139 140
124 124 128 133 133 134 136 141 142 141 140 139 139 137 135 133 130 128 128 129 125 121 121 122 124 116 123 222 266 270 272 275 278 263 233 177 145 139 141 144 143 144 150
128 126 132 134 135 137 137 140 142 142 142 141 140 138 135 134 135 135 133 130 129 134 141 144 151 171 212 266 276 277 278 280 268 270 272 136 132 139 139 138 141 147 159
127 127 133 138 140 141 141 141 143 144 144 142 141 140 143 146 148 148 146 143 142 149 163 178 192 225 250 265 273 277 277 280 276 279 212 123 129 131 135 134 136 144 156
119 125 137 145 145 146 147 148 149 147 146 147 148 148 154 159 164 165 161 159 166 184 203 217 218 232 246 256 262 267 271 274 278 274 241 121 130 132 137 137 139 142 151
119 125 135 140 146 155 156 156 155 154 153 156 158 162 167 174 179 184 179 177 192 205 218 231 232 237 242 248 254 260 266 273 256 250 165 134 133 131 130 132 141 152 164
115 125 137 139 146 157 158 155 158 161 162 164 169 176 179 189 187 192 184 182 199 210 223 234 236 239 244 245 247 251 258 249 239 206 139 132 139 137 133 137 153 164 175
118 128 135 137 146 155 150 146 162 167 165 178 172 176 194 204 198 185 170 188 204 214 225 234 238 245 243 237 233 239 244 239 233 172 143 141 142 144 143 151 167 181 192
120 119 120 130 130 128 126 147 160 163 157 181 173 179 195 208 197 165 173 190 211 217 223 225 230 233 233 239 236 224 241 255 224 146 141 147 149 155 160 172 182 193 203
115 118 109 107 109 107 116 137 146 156 160 173 165 172 187 203 206 179 199 192 213 219 223 227 233 230 241 252 251 247 244 240 224 135 160 165 166 172 181 190 199 202 207
104 94 105 114 115 112 113 138 139 151 162 161 150 160 174 193 185 226 247 222 233 231 224 236 249 245 245 246 248 248 258 238 228 195 163 179 181 182 188 195 201 209 217
107 107 103 122 120 116 114 116 135 148 148 149 145 151 179 218 187 227 231 246 267 258 247 250 255 249 244 261 270 270 270 262 229 194 181 188 193 192 193 199 205 212 223
102 102 111 132 122 126 129 132 121 120 142 154 146 153 166 222 239 247 265 236 278 279 255 254 270 262 251 248 249 259 252 257 254 213 197 187 190 201 202 202 207 216 224
116 108 123 128 124 135 133 135 136 138 129 97 111 129 145 182 251 279 274 272 288 287 281 263 267 272 264 264 256 253 245 222 228 209 198 192 184 189 196 200 205 216 226
117 119 129 125 129 137 137 145 146 114 90 77 94 103 117 185 227 237 288 327 300 304 314 299 318 298 288 278 267 245 245 234 215 216 183 183 187 178 184 196 209 216 225
119 120 122 125 132 138 138 148 134 120 113 107 106 81 101 187 227 226 237 288 297 309 324 320 325 305 292 287 285 280 254 245 218 203 206 202 194 200 198 188 200 217 221
127 129 133 143 146 148 147 159 157 157 156 149 128 113 130 216 207 183 284 256 297 314 306 314 312 297 294 302 295 289 266 237 225 201 212 220 225 215 207 203 194 200 206
142 147 148 149 149 158 147 163 179 178 184 158 149 167 179 216 252 215 250 264 292 287 288 292 296 295 291 281 279 286 283 263 256 225 205 208 223 220 216 216 200 200 202
155 158 156 154 153 159 157 161 154 142 158 131 154 164 194 214 214 263 232 269 266 266 265 271 311 296 292 292 269 273 291 289 291 248 227 217 215 215 220 216 215 222 223
164 159 156 151 155 161 163 166 173 181 191 213 211 192 206 215 217 219 212 243 258 283 286 279 329 298 290 298 287 255 248 265 280 307 285 250 234 224 221 228 227 229 229
169 155 147 145 154 157 163 169 172 205 231 220 221 202 213 194 187 222 195 213 206 232 249 269 295 284 291 296 300 302 291 279 259 264 288 280 264 242 217 210 214 219 222
157 149 140 137 146 155 165 172 168 203 226 230 239 226 211 177 164 177 183 198 192 228 252 266 277 269 280 295 298 299 299 298 295 277 284 288 277 265 243 219 215 212 213